Location: Gerlach
(40.6516°N, 119.3568°W)
Time: 15:00:43
(UTC-07:00)

A-11 Canister half - Pass Details

Date: 27 February 2024
Orbit: 1525 x 1683 km, 47.3° (Epoch: 21 April)

Event Time Altitude Azimuth Distance (km) Brightness Sun altitude
Rises 19:24:31 0° 224° (SW) 4,807 12.2 -19.4°
Reaches altitude 10° 19:27:41 10° 222° (SW) 3,802 11.5 -20.0°
Maximum altitude 19:37:09 65° 143° (SE) 1,689 9.0 -21.8°
Enters shadow 19:42:07 31° 73° (ENE) 2,455 9.6 -22.7°
